Hourly Data Report for February 27, 2021

TORONTO CITY
ONTARIO
Current Station Operator: ECCC - MSC

43°40'00.000" N
79°24'00.000" W
112.50 m
6158355
71508
XTO

Download Data

Hourly Data (February 2021)
Hourly Data Report for February 27, 2021
TIME
LST
Temp Definition
°C
Dew Point Definition
°C
Rel Hum Definition
%
Precip. Amount Definition
mm

Wind Dir Definition
10's deg

Wind Spd Definition
km/h
Visibility Definition
km
Stn Press Definition
kPa
Hmdx Definition


Wind Chill Definition


Weather Definition


00:00 1.6 -3.4 69 0.0       100.53     LegendNANA
01:00 1.9 -3.4 68 0.0       100.44     LegendNANA
02:00 1.8 -3.3 69 0.0       100.38     LegendNANA
03:00 2.2 -3.1 68 0.0       100.22     LegendNANA
04:00 2.5 -3.3 66 0.0       100.08     LegendNANA
05:00 2.7 -2.3 69 0.0       99.91     LegendNANA
06:00 2.6 -1.4 75 0.1       99.81     LegendNANA
07:00 2.2 0.0 85 1.1       99.71     LegendNANA
08:00 2.8 1.7 93 3.2       99.73     LegendNANA
09:00 3.7 2.6 93 1.9       99.70     LegendNANA
10:00 3.3 2.3 93 0.2       99.71     LegendNANA
11:00 4.4 2.6 88 0.0       99.78     LegendNANA
12:00 5.4 0.5 71 0.0       99.93     LegendNANA
13:00 5.3 -0.7 65 0.0       100.03     LegendNANA
14:00 5.5 -0.9 63 0.0       100.12     LegendNANA
15:00 5.9 -0.8 62 0.0       100.25     LegendNANA
16:00 6.3 -0.8 60 0.0       100.41     LegendNANA
17:00 5.6 -1.0 63 0.0       100.54     LegendNANA
18:00 4.7 -1.1 66 0.0       100.68     LegendNANA
19:00 4.2 -0.8 70 0.0       100.84     LegendNANA
20:00 3.6 -0.9 73 0.0       100.84     LegendNANA
21:00 2.9 -0.5 78 0.0       100.89     LegendNANA
22:00 2.5 0.0 83 0.0       100.95     LegendNANA
23:00 2.0 0.3 88 0.0       100.97     LegendNANA

Notes on Data Quality.

Legend

  • E = Estimated
  • M = Missing
  • NA = Not Available*
  • [empty] = Indicates an unobserved value
Date modified: